GEFSMW_prec_meanprecacc_228.txt.gz
Total_Precipitation_Accumulation
0.63 0.63 0.67 0.72 0.73 0.71 0.68 0.65 0.68 0.76 0.87 1.07 1.35 1.75 1.97 2.09 2.08 2.09 2.00 1.77 1.53 1.54 1.73 1.71 1.67 1.68 1.68 1.65 1.59 1.75 1.70 1.44 1.35 1.56 1.55 1.39 1.21 1.16 1.16 1.22 1.46 1.57 1.49
0.60 0.58 0.56 0.59 0.62 0.61 0.61 0.70 0.67 0.72 0.84 1.09 1.36 1.67 2.00 2.07 2.08 2.08 2.05 1.93 1.77 1.77 1.82 2.03 2.13 2.10 2.24 2.22 2.03 2.18 2.21 1.83 1.59 1.87 2.21 1.93 1.70 1.29 1.20 1.33 1.39 1.49 1.57
0.49 0.51 0.51 0.50 0.54 0.52 0.48 0.58 0.65 0.74 0.99 1.30 1.55 1.71 1.98 2.05 2.09 2.05 2.07 2.09 2.03 1.93 1.96 2.09 2.25 2.25 2.34 2.47 2.54 2.47 2.58 2.39 1.99 1.86 2.18 2.12 1.97 1.76 1.41 1.35 1.44 1.59 1.65
0.42 0.42 0.47 0.47 0.44 0.41 0.39 0.45 0.54 0.75 1.10 1.42 1.61 1.83 2.19 2.24 2.14 2.15 2.13 2.13 2.16 2.12 2.22 2.26 2.37 2.37 2.37 2.49 2.59 2.54 2.69 2.78 2.40 2.08 1.88 1.73 1.74 1.89 1.73 1.50 1.46 1.61 1.63
0.35 0.34 0.35 0.36 0.37 0.41 0.42 0.46 0.61 0.84 1.12 1.33 1.58 1.92 2.14 2.21 2.29 2.18 2.14 2.14 2.20 2.22 2.27 2.36 2.54 2.51 2.49 2.48 2.67 2.71 2.81 2.74 2.67 2.52 2.35 2.19 1.95 1.64 1.77 1.82 1.68 1.57 1.46
0.33 0.34 0.36 0.37 0.39 0.42 0.47 0.58 0.74 0.90 1.14 1.33 1.57 1.75 1.96 2.06 2.16 2.21 2.12 2.10 2.16 2.26 2.15 2.09 2.26 2.33 2.36 2.35 2.54 2.70 2.83 2.81 2.83 2.76 2.47 2.42 2.30 1.99 1.95 1.82 1.70 1.72 1.53
0.41 0.45 0.47 0.55 0.62 0.64 0.67 0.75 0.87 1.01 1.14 1.27 1.40 1.47 1.61 1.75 1.75 1.88 1.94 2.04 2.04 2.09 2.13 2.02 2.03 2.07 2.03 2.06 2.19 2.26 2.33 2.46 2.62 2.54 2.33 2.29 2.14 2.13 2.19 2.09 1.86 1.69 1.44
0.57 0.67 0.74 0.83 0.92 0.94 0.95 1.00 1.06 1.07 1.11 1.19 1.25 1.30 1.37 1.45 1.48 1.49 1.48 1.62 1.76 1.79 1.87 1.87 1.81 1.87 1.93 1.91 2.02 2.06 2.07 2.09 2.16 2.14 2.24 2.30 2.16 2.10 2.07 2.12 2.28 2.04 1.78
0.83 0.93 1.04 1.05 1.05 1.06 1.04 1.06 1.09 1.07 1.08 1.12 1.12 1.06 1.06 1.14 1.24 1.24 1.29 1.30 1.36 1.36 1.42 1.51 1.58 1.67 1.74 1.79 1.94 2.04 2.05 2.00 1.97 2.06 2.14 2.09 2.07 2.07 1.98 1.96 2.12 2.23 2.06
1.18 1.30 1.39 1.32 1.24 1.26 1.32 1.22 1.14 1.07 1.03 1.03 1.06 0.98 0.95 1.02 1.07 1.03 1.07 1.04 1.05 1.05 1.09 1.18 1.36 1.59 1.71 1.74 1.82 1.90 2.00 2.01 1.97 2.05 2.17 2.20 2.18 2.20 2.14 2.02 2.00 1.96 2.00
1.59 1.68 1.69 1.60 1.41 1.29 1.29 1.24 1.15 1.04 0.92 0.90 0.99 0.99 0.91 0.94 0.98 0.95 0.89 0.84 0.87 0.92 1.00 1.04 1.19 1.34 1.52 1.71 1.86 1.89 1.90 1.92 1.91 1.84 1.95 2.07 2.16 2.28 2.30 2.30 2.19 2.05 1.98
1.50 1.53 1.49 1.49 1.37 1.27 1.18 1.16 1.07 0.92 0.86 0.90 0.93 0.95 0.85 0.83 0.87 0.86 0.89 0.78 0.73 0.74 0.81 0.94 1.14 1.25 1.34 1.39 1.47 1.55 1.62 1.67 1.73 1.72 1.69 1.76 1.86 2.02 2.17 2.26 2.21 2.20 2.08
1.20 1.29 1.34 1.23 1.18 1.11 1.05 1.16 1.18 1.06 1.01 1.02 1.09 1.01 0.86 0.85 0.88 0.83 0.88 0.80 0.72 0.72 0.76 0.89 1.04 1.10 1.15 1.18 1.20 1.31 1.41 1.43 1.44 1.50 1.47 1.47 1.55 1.70 1.85 1.95 2.02 2.14 2.16
1.05 1.07 1.13 1.08 1.09 1.04 1.00 1.12 1.17 1.16 1.20 1.26 1.23 1.08 0.96 0.88 0.84 0.82 0.84 0.80 0.77 0.78 0.80 0.95 1.03 1.05 1.02 1.11 1.14 1.20 1.23 1.19 1.15 1.19 1.19 1.22 1.27 1.37 1.52 1.67 1.88 2.06 2.15
0.88 0.81 0.78 0.80 0.86 0.85 0.80 0.86 0.96 1.04 1.15 1.20 1.12 1.03 0.93 0.81 0.75 0.78 0.75 0.78 0.83 0.82 0.84 0.88 0.99 1.02 1.00 1.05 1.12 1.10 1.03 1.03 1.02 0.96 0.86 0.88 0.96 1.00 1.10 1.14 1.43 1.68 1.90
0.64 0.61 0.56 0.55 0.59 0.52 0.55 0.59 0.70 0.86 1.04 1.11 0.99 0.87 0.80 0.79 0.72 0.68 0.65 0.65 0.68 0.70 0.72 0.77 0.93 1.03 0.91 1.02 1.01 0.93 0.86 0.83 0.88 0.85 0.77 0.74 0.79 0.73 0.70 0.74 0.96 1.25 1.44
0.53 0.55 0.53 0.47 0.50 0.46 0.47 0.56 0.63 0.76 0.86 0.88 0.81 0.71 0.66 0.64 0.58 0.55 0.56 0.59 0.61 0.62 0.65 0.67 0.82 0.91 0.97 0.91 0.76 0.81 0.80 0.81 0.85 0.87 0.89 0.80 0.75 0.85 0.75 0.69 0.76 0.84 0.95
0.43 0.49 0.51 0.49 0.50 0.54 0.56 0.65 0.71 0.71 0.74 0.78 0.76 0.68 0.61 0.56 0.52 0.48 0.50 0.60 0.62 0.59 0.61 0.63 0.65 0.73 0.87 0.81 0.66 0.70 0.69 0.80 0.89 0.92 1.00 1.00 0.94 0.92 0.99 0.92 0.93 0.90 0.83
0.25 0.27 0.32 0.34 0.39 0.43 0.48 0.49 0.50 0.52 0.54 0.57 0.62 0.56 0.47 0.50 0.54 0.51 0.55 0.59 0.59 0.62 0.61 0.63 0.64 0.69 0.74 0.72 0.65 0.67 0.72 0.85 0.88 0.84 0.96 1.00 0.95 1.01 1.06 1.17 1.23 1.15 1.00
0.16 0.15 0.15 0.17 0.20 0.25 0.36 0.41 0.39 0.34 0.33 0.36 0.41 0.41 0.38 0.41 0.49 0.58 0.64 0.60 0.56 0.61 0.62 0.59 0.56 0.59 0.60 0.67 0.59 0.69 0.79 0.84 0.85 0.86 0.92 1.07 1.00 0.98 0.95 1.03 1.17 1.16 1.02
0.14 0.15 0.14 0.14 0.18 0.22 0.25 0.29 0.35 0.32 0.29 0.30 0.32 0.32 0.32 0.35 0.44 0.50 0.48 0.48 0.50 0.53 0.54 0.56 0.54 0.53 0.60 0.72 0.72 0.78 0.79 0.83 0.89 0.97 1.02 1.00 1.09 0.93 0.89 0.89 0.91 1.00 0.99
0.11 0.12 0.13 0.15 0.20 0.20 0.18 0.21 0.24 0.25 0.27 0.26 0.28 0.27 0.25 0.25 0.28 0.35 0.39 0.42 0.43 0.45 0.44 0.45 0.44 0.47 0.58 0.66 0.68 0.71 0.75 0.83 0.82 0.87 0.88 0.85 0.94 0.80 0.71 0.66 0.72 0.79 0.84
0.09 0.11 0.15 0.19 0.21 0.19 0.17 0.18 0.20 0.24 0.28 0.27 0.26 0.25 0.24 0.24 0.26 0.30 0.34 0.37 0.41 0.43 0.41 0.38 0.39 0.43 0.47 0.55 0.58 0.58 0.57 0.60 0.62 0.59 0.70 0.72 0.70 0.65 0.58 0.62 0.67 0.68 0.70
0.09 0.12 0.16 0.18 0.19 0.18 0.20 0.21 0.21 0.21 0.23 0.23 0.23 0.23 0.24 0.25 0.25 0.28 0.33 0.39 0.39 0.36 0.35 0.37 0.39 0.44 0.47 0.47 0.47 0.49 0.49 0.48 0.52 0.51 0.54 0.56 0.54 0.54 0.56 0.59 0.63 0.68 0.72
0.11 0.12 0.14 0.17 0.17 0.19 0.21 0.23 0.22 0.20 0.20 0.20 0.19 0.20 0.21 0.24 0.24 0.22 0.23 0.30 0.33 0.31 0.33 0.35 0.39 0.43 0.46 0.44 0.41 0.40 0.45 0.50 0.54 0.60 0.56 0.53 0.54 0.55 0.62 0.65 0.64 0.66 0.70
0.12 0.13 0.13 0.15 0.16 0.18 0.22 0.24 0.27 0.25 0.22 0.21 0.20 0.21 0.21 0.22 0.22 0.22 0.22 0.25 0.25 0.27 0.28 0.26 0.27 0.26 0.26 0.29 0.29 0.30 0.34 0.40 0.46 0.60 0.67 0.69 0.75 0.78 0.78 0.75 0.66 0.60 0.60

GEFSMW_prec_meanprecacc_234.txt.gz
Total_Precipitation_Accumulation
0.64 0.64 0.67 0.72 0.73 0.72 0.69 0.67 0.71 0.78 0.89 1.10 1.37 1.77 1.99 2.12 2.11 2.11 2.02 1.79 1.55 1.57 1.76 1.75 1.71 1.70 1.71 1.68 1.62 1.79 1.73 1.46 1.37 1.58 1.57 1.41 1.22 1.17 1.16 1.23 1.47 1.58 1.50
0.61 0.58 0.56 0.59 0.63 0.61 0.63 0.73 0.71 0.75 0.86 1.11 1.38 1.69 2.02 2.08 2.10 2.11 2.07 1.95 1.79 1.78 1.84 2.07 2.16 2.13 2.27 2.25 2.06 2.21 2.23 1.85 1.61 1.91 2.25 1.96 1.72 1.30 1.21 1.34 1.41 1.50 1.58
0.49 0.52 0.51 0.51 0.55 0.53 0.49 0.60 0.69 0.79 1.03 1.33 1.57 1.73 2.00 2.08 2.12 2.08 2.09 2.11 2.04 1.94 1.99 2.12 2.28 2.29 2.38 2.51 2.57 2.49 2.60 2.42 2.01 1.89 2.22 2.16 2.00 1.79 1.43 1.36 1.44 1.60 1.66
0.43 0.43 0.47 0.48 0.45 0.42 0.39 0.46 0.57 0.79 1.14 1.47 1.67 1.88 2.22 2.27 2.18 2.18 2.14 2.15 2.17 2.14 2.24 2.28 2.38 2.38 2.40 2.52 2.61 2.55 2.71 2.81 2.44 2.12 1.91 1.75 1.76 1.92 1.75 1.51 1.47 1.62 1.64
0.35 0.34 0.36 0.37 0.38 0.41 0.42 0.46 0.62 0.87 1.17 1.39 1.64 1.99 2.18 2.24 2.33 2.22 2.17 2.16 2.21 2.23 2.29 2.37 2.54 2.52 2.50 2.48 2.69 2.72 2.82 2.76 2.70 2.56 2.37 2.20 1.97 1.67 1.81 1.85 1.69 1.57 1.47
0.33 0.34 0.36 0.37 0.39 0.42 0.48 0.58 0.75 0.92 1.17 1.38 1.62 1.80 2.00 2.10 2.20 2.26 2.17 2.14 2.19 2.28 2.17 2.09 2.28 2.34 2.37 2.37 2.56 2.72 2.85 2.82 2.84 2.78 2.49 2.45 2.34 2.02 1.99 1.85 1.72 1.73 1.54
0.41 0.45 0.47 0.55 0.63 0.65 0.67 0.76 0.88 1.03 1.17 1.30 1.44 1.50 1.64 1.77 1.77 1.92 1.98 2.09 2.09 2.13 2.14 2.03 2.04 2.09 2.05 2.08 2.21 2.28 2.35 2.49 2.66 2.57 2.36 2.32 2.16 2.15 2.23 2.12 1.88 1.71 1.47
0.57 0.67 0.75 0.83 0.93 0.94 0.95 1.02 1.08 1.10 1.15 1.22 1.28 1.33 1.40 1.47 1.50 1.52 1.51 1.66 1.81 1.82 1.88 1.89 1.83 1.89 1.95 1.93 2.04 2.08 2.10 2.13 2.20 2.17 2.26 2.32 2.18 2.13 2.10 2.17 2.32 2.07 1.81
0.83 0.93 1.04 1.06 1.06 1.07 1.05 1.07 1.11 1.10 1.11 1.16 1.17 1.10 1.09 1.17 1.26 1.26 1.32 1.34 1.40 1.39 1.44 1.52 1.60 1.69 1.76 1.81 1.97 2.08 2.08 2.03 2.00 2.09 2.17 2.12 2.09 2.09 2.00 2.01 2.18 2.28 2.11
1.19 1.30 1.40 1.33 1.25 1.27 1.33 1.24 1.15 1.09 1.06 1.07 1.11 1.03 0.99 1.05 1.09 1.05 1.10 1.07 1.07 1.07 1.11 1.21 1.38 1.61 1.73 1.76 1.85 1.94 2.02 2.03 1.99 2.08 2.19 2.23 2.21 2.24 2.18 2.07 2.06 2.00 2.05
1.59 1.68 1.69 1.60 1.42 1.30 1.30 1.26 1.16 1.05 0.94 0.93 1.01 1.03 0.95 0.98 1.01 0.99 0.92 0.88 0.89 0.94 1.03 1.07 1.22 1.37 1.56 1.74 1.88 1.92 1.92 1.95 1.94 1.86 1.97 2.10 2.18 2.29 2.33 2.35 2.25 2.10 2.03
1.50 1.54 1.50 1.49 1.38 1.28 1.19 1.18 1.09 0.93 0.88 0.93 0.96 0.99 0.89 0.86 0.91 0.90 0.93 0.82 0.76 0.78 0.84 0.97 1.17 1.28 1.36 1.41 1.50 1.59 1.65 1.70 1.76 1.75 1.72 1.79 1.88 2.04 2.19 2.29 2.26 2.25 2.13
1.21 1.29 1.34 1.23 1.18 1.12 1.06 1.17 1.19 1.07 1.02 1.05 1.15 1.07 0.91 0.89 0.91 0.86 0.92 0.85 0.79 0.78 0.80 0.92 1.07 1.12 1.18 1.21 1.24 1.36 1.46 1.47 1.47 1.53 1.49 1.49 1.57 1.72 1.87 1.96 2.05 2.18 2.21
1.05 1.08 1.13 1.08 1.09 1.04 1.01 1.14 1.18 1.18 1.22 1.28 1.29 1.15 1.02 0.91 0.87 0.85 0.88 0.86 0.85 0.85 0.87 0.99 1.06 1.08 1.06 1.15 1.19 1.25 1.27 1.21 1.17 1.21 1.20 1.23 1.28 1.38 1.53 1.69 1.90 2.07 2.18
0.89 0.82 0.80 0.81 0.87 0.86 0.81 0.88 0.98 1.06 1.17 1.22 1.16 1.08 0.97 0.84 0.78 0.82 0.81 0.85 0.89 0.88 0.90 0.94 1.04 1.07 1.05 1.10 1.17 1.14 1.07 1.05 1.03 0.98 0.88 0.90 0.98 1.01 1.11 1.15 1.44 1.70 1.91
0.65 0.61 0.57 0.56 0.61 0.55 0.57 0.61 0.71 0.87 1.05 1.13 1.02 0.90 0.84 0.82 0.76 0.73 0.70 0.71 0.74 0.75 0.77 0.82 0.98 1.07 0.97 1.08 1.06 0.97 0.89 0.85 0.90 0.86 0.78 0.77 0.82 0.75 0.72 0.75 0.97 1.26 1.45
0.54 0.55 0.53 0.49 0.51 0.47 0.49 0.57 0.65 0.78 0.86 0.89 0.83 0.74 0.71 0.68 0.62 0.60 0.61 0.65 0.67 0.68 0.70 0.72 0.86 0.96 1.02 0.95 0.79 0.84 0.83 0.83 0.86 0.89 0.90 0.81 0.77 0.86 0.76 0.70 0.77 0.85 0.96
0.44 0.49 0.51 0.49 0.50 0.54 0.57 0.67 0.73 0.73 0.75 0.79 0.78 0.72 0.65 0.60 0.55 0.51 0.53 0.64 0.66 0.63 0.64 0.66 0.68 0.76 0.90 0.85 0.68 0.72 0.71 0.82 0.91 0.94 1.01 1.01 0.95 0.93 1.00 0.93 0.94 0.90 0.84
0.25 0.28 0.32 0.34 0.40 0.44 0.49 0.51 0.53 0.54 0.55 0.58 0.64 0.60 0.51 0.53 0.56 0.53 0.57 0.62 0.63 0.66 0.64 0.65 0.66 0.71 0.76 0.74 0.67 0.69 0.74 0.86 0.89 0.85 0.97 1.01 0.97 1.02 1.08 1.17 1.23 1.15 1.00
0.16 0.15 0.16 0.17 0.21 0.26 0.39 0.44 0.41 0.35 0.34 0.37 0.43 0.45 0.41 0.44 0.51 0.60 0.66 0.63 0.60 0.64 0.65 0.61 0.58 0.61 0.62 0.68 0.60 0.71 0.81 0.86 0.86 0.87 0.93 1.09 1.01 0.98 0.96 1.03 1.17 1.16 1.02
0.14 0.15 0.14 0.15 0.18 0.24 0.28 0.31 0.37 0.33 0.31 0.32 0.34 0.36 0.35 0.37 0.46 0.51 0.50 0.50 0.53 0.56 0.57 0.58 0.56 0.55 0.62 0.74 0.74 0.80 0.81 0.85 0.91 0.99 1.03 1.01 1.10 0.94 0.89 0.90 0.91 1.00 0.99
0.11 0.12 0.13 0.16 0.21 0.22 0.21 0.22 0.25 0.26 0.28 0.28 0.31 0.31 0.28 0.27 0.30 0.36 0.40 0.43 0.44 0.46 0.45 0.46 0.46 0.49 0.60 0.68 0.69 0.72 0.77 0.85 0.84 0.89 0.89 0.86 0.96 0.81 0.72 0.66 0.73 0.80 0.85
0.09 0.11 0.16 0.20 0.23 0.22 0.19 0.20 0.21 0.24 0.29 0.29 0.29 0.29 0.27 0.26 0.27 0.32 0.35 0.39 0.43 0.45 0.43 0.40 0.40 0.45 0.50 0.57 0.59 0.59 0.59 0.63 0.64 0.61 0.72 0.74 0.72 0.67 0.59 0.63 0.67 0.69 0.71
0.10 0.12 0.17 0.20 0.21 0.21 0.22 0.23 0.22 0.22 0.25 0.26 0.26 0.26 0.27 0.28 0.27 0.30 0.35 0.41 0.41 0.38 0.37 0.38 0.40 0.45 0.49 0.49 0.49 0.51 0.51 0.50 0.54 0.53 0.56 0.59 0.56 0.56 0.57 0.60 0.64 0.69 0.73
0.11 0.13 0.15 0.19 0.20 0.21 0.23 0.24 0.23 0.21 0.22 0.23 0.22 0.22 0.23 0.26 0.26 0.24 0.26 0.33 0.36 0.34 0.36 0.37 0.41 0.45 0.48 0.46 0.43 0.42 0.47 0.51 0.56 0.62 0.58 0.55 0.56 0.56 0.63 0.66 0.65 0.68 0.71
0.13 0.14 0.14 0.17 0.18 0.19 0.23 0.25 0.28 0.27 0.24 0.23 0.22 0.23 0.23 0.24 0.24 0.23 0.24 0.27 0.27 0.31 0.32 0.29 0.29 0.28 0.28 0.32 0.32 0.33 0.37 0.44 0.49 0.62 0.69 0.72 0.77 0.79 0.79 0.76 0.67 0.61 0.61

GEFSMW_prec_meanprecacc_240.txt.gz
Total_Precipitation_Accumulation
0.65 0.65 0.68 0.73 0.75 0.73 0.71 0.70 0.74 0.81 0.94 1.14 1.40 1.80 2.02 2.14 2.12 2.12 2.04 1.81 1.59 1.59 1.79 1.78 1.73 1.72 1.73 1.70 1.64 1.80 1.74 1.46 1.38 1.59 1.58 1.42 1.23 1.17 1.17 1.24 1.48 1.59 1.50
0.62 0.60 0.57 0.59 0.64 0.62 0.64 0.74 0.73 0.78 0.90 1.15 1.42 1.73 2.05 2.10 2.11 2.12 2.09 1.98 1.83 1.81 1.86 2.09 2.19 2.15 2.30 2.27 2.07 2.22 2.25 1.86 1.62 1.92 2.25 1.96 1.72 1.31 1.22 1.35 1.41 1.50 1.59
0.51 0.54 0.53 0.52 0.56 0.53 0.50 0.61 0.70 0.81 1.07 1.37 1.62 1.77 2.02 2.10 2.14 2.09 2.10 2.14 2.08 1.97 2.02 2.15 2.31 2.32 2.40 2.54 2.59 2.51 2.62 2.44 2.03 1.91 2.23 2.17 2.01 1.79 1.43 1.37 1.45 1.60 1.67
0.44 0.45 0.49 0.50 0.47 0.43 0.40 0.47 0.58 0.81 1.17 1.51 1.72 1.92 2.24 2.29 2.19 2.19 2.15 2.16 2.19 2.17 2.27 2.31 2.41 2.42 2.42 2.53 2.61 2.56 2.72 2.83 2.46 2.13 1.92 1.76 1.76 1.93 1.76 1.52 1.47 1.63 1.65
0.35 0.36 0.38 0.40 0.41 0.44 0.44 0.48 0.64 0.90 1.21 1.44 1.69 2.03 2.22 2.28 2.36 2.24 2.20 2.19 2.24 2.26 2.31 2.40 2.57 2.55 2.53 2.50 2.69 2.73 2.83 2.76 2.71 2.57 2.39 2.21 1.98 1.67 1.81 1.86 1.70 1.59 1.48
0.33 0.35 0.38 0.39 0.42 0.45 0.51 0.62 0.79 0.96 1.22 1.43 1.67 1.85 2.05 2.16 2.25 2.30 2.21 2.17 2.24 2.33 2.19 2.12 2.30 2.36 2.40 2.39 2.57 2.73 2.86 2.83 2.87 2.79 2.50 2.46 2.35 2.03 2.00 1.86 1.72 1.74 1.55
0.42 0.47 0.49 0.56 0.64 0.67 0.70 0.80 0.92 1.08 1.22 1.35 1.49 1.56 1.69 1.84 1.83 1.97 2.02 2.12 2.13 2.17 2.17 2.06 2.07 2.11 2.08 2.11 2.24 2.30 2.37 2.51 2.68 2.59 2.38 2.34 2.18 2.17 2.25 2.14 1.89 1.72 1.48
0.58 0.68 0.76 0.85 0.94 0.96 0.98 1.05 1.11 1.13 1.19 1.26 1.33 1.38 1.45 1.53 1.55 1.55 1.53 1.68 1.84 1.85 1.92 1.91 1.86 1.91 1.98 1.98 2.09 2.11 2.12 2.16 2.23 2.19 2.30 2.36 2.21 2.16 2.13 2.19 2.34 2.08 1.83
0.83 0.93 1.05 1.10 1.09 1.09 1.08 1.12 1.16 1.15 1.15 1.20 1.21 1.14 1.14 1.22 1.30 1.29 1.33 1.36 1.42 1.41 1.46 1.55 1.63 1.73 1.80 1.87 2.01 2.11 2.10 2.05 2.02 2.12 2.20 2.14 2.11 2.11 2.04 2.03 2.20 2.30 2.13
1.19 1.31 1.43 1.38 1.31 1.30 1.36 1.28 1.21 1.14 1.11 1.12 1.17 1.08 1.05 1.10 1.12 1.08 1.12 1.10 1.10 1.09 1.13 1.24 1.42 1.66 1.77 1.80 1.88 1.98 2.06 2.06 2.02 2.10 2.22 2.25 2.23 2.25 2.20 2.10 2.08 2.02 2.07
1.59 1.69 1.70 1.62 1.45 1.32 1.33 1.30 1.18 1.08 0.98 0.99 1.08 1.10 1.03 1.05 1.07 1.04 0.97 0.93 0.92 0.97 1.06 1.10 1.24 1.41 1.59 1.78 1.93 1.97 1.97 1.99 1.97 1.90 1.99 2.12 2.19 2.30 2.34 2.36 2.27 2.12 2.07
1.51 1.54 1.50 1.50 1.39 1.29 1.21 1.19 1.10 0.95 0.91 0.96 1.01 1.06 0.97 0.94 0.98 0.96 0.98 0.88 0.81 0.81 0.87 1.00 1.20 1.32 1.41 1.47 1.57 1.64 1.70 1.75 1.81 1.78 1.75 1.81 1.89 2.04 2.20 2.30 2.28 2.27 2.16
1.21 1.30 1.35 1.24 1.19 1.13 1.07 1.19 1.21 1.08 1.04 1.07 1.18 1.13 0.99 0.95 0.96 0.91 0.98 0.90 0.84 0.83 0.84 0.96 1.11 1.16 1.22 1.27 1.31 1.42 1.54 1.55 1.52 1.57 1.51 1.50 1.58 1.73 1.88 1.97 2.06 2.20 2.23
1.07 1.09 1.14 1.09 1.10 1.06 1.03 1.16 1.20 1.19 1.23 1.30 1.32 1.20 1.08 0.97 0.91 0.88 0.92 0.92 0.90 0.89 0.91 1.03 1.11 1.12 1.12 1.23 1.25 1.30 1.32 1.26 1.21 1.23 1.21 1.24 1.29 1.39 1.54 1.69 1.90 2.08 2.19
0.90 0.83 0.81 0.82 0.88 0.88 0.83 0.90 1.00 1.08 1.19 1.25 1.21 1.15 1.03 0.89 0.82 0.85 0.84 0.88 0.94 0.92 0.96 1.01 1.11 1.14 1.12 1.17 1.23 1.19 1.11 1.07 1.05 1.00 0.89 0.91 0.99 1.02 1.11 1.15 1.44 1.70 1.92
0.67 0.63 0.59 0.58 0.63 0.56 0.58 0.62 0.73 0.89 1.08 1.15 1.07 0.96 0.89 0.87 0.79 0.76 0.74 0.76 0.80 0.82 0.84 0.88 1.04 1.14 1.03 1.13 1.12 1.02 0.92 0.88 0.92 0.88 0.80 0.78 0.83 0.76 0.73 0.76 0.98 1.28 1.46
0.55 0.57 0.55 0.50 0.52 0.48 0.50 0.58 0.66 0.80 0.90 0.92 0.87 0.79 0.75 0.73 0.66 0.64 0.67 0.72 0.74 0.76 0.77 0.77 0.92 1.00 1.06 1.00 0.84 0.89 0.86 0.86 0.89 0.91 0.92 0.83 0.79 0.87 0.77 0.71 0.78 0.87 0.97
0.45 0.50 0.52 0.49 0.51 0.55 0.58 0.68 0.75 0.75 0.78 0.82 0.81 0.76 0.70 0.65 0.60 0.56 0.59 0.70 0.73 0.70 0.70 0.71 0.73 0.79 0.94 0.89 0.72 0.77 0.75 0.86 0.93 0.96 1.04 1.04 0.97 0.95 1.01 0.95 0.95 0.91 0.84
0.28 0.29 0.32 0.34 0.40 0.44 0.50 0.52 0.54 0.56 0.57 0.61 0.68 0.64 0.56 0.58 0.61 0.58 0.63 0.67 0.67 0.69 0.67 0.69 0.69 0.73 0.79 0.78 0.70 0.72 0.77 0.90 0.91 0.87 0.99 1.04 0.99 1.04 1.10 1.19 1.24 1.16 1.01
0.18 0.16 0.16 0.19 0.22 0.27 0.39 0.45 0.42 0.36 0.36 0.39 0.45 0.48 0.45 0.48 0.54 0.63 0.69 0.67 0.63 0.68 0.69 0.65 0.62 0.63 0.65 0.72 0.64 0.74 0.83 0.87 0.88 0.89 0.95 1.11 1.04 1.01 0.98 1.05 1.18 1.16 1.03
0.16 0.16 0.15 0.15 0.19 0.24 0.29 0.32 0.38 0.34 0.32 0.34 0.35 0.37 0.37 0.40 0.48 0.53 0.51 0.52 0.55 0.60 0.60 0.61 0.59 0.58 0.64 0.77 0.77 0.82 0.82 0.86 0.93 1.01 1.05 1.03 1.13 0.97 0.92 0.92 0.92 1.01 1.00
0.12 0.13 0.14 0.16 0.21 0.22 0.22 0.24 0.26 0.27 0.29 0.30 0.32 0.32 0.29 0.30 0.32 0.37 0.42 0.44 0.46 0.48 0.47 0.48 0.48 0.52 0.62 0.71 0.72 0.74 0.78 0.86 0.86 0.90 0.91 0.88 0.97 0.83 0.74 0.68 0.74 0.81 0.86
0.10 0.12 0.17 0.20 0.23 0.23 0.21 0.21 0.22 0.25 0.30 0.30 0.30 0.30 0.29 0.28 0.30 0.33 0.36 0.41 0.45 0.48 0.45 0.42 0.42 0.47 0.51 0.58 0.62 0.61 0.61 0.65 0.66 0.63 0.74 0.77 0.74 0.69 0.62 0.65 0.69 0.71 0.72
0.11 0.13 0.18 0.20 0.23 0.23 0.23 0.24 0.24 0.24 0.26 0.26 0.27 0.27 0.28 0.30 0.30 0.33 0.38 0.44 0.44 0.40 0.38 0.40 0.42 0.47 0.51 0.51 0.50 0.52 0.52 0.52 0.57 0.55 0.59 0.62 0.59 0.58 0.59 0.62 0.66 0.71 0.74
0.13 0.14 0.16 0.21 0.22 0.23 0.24 0.26 0.25 0.23 0.23 0.24 0.23 0.23 0.26 0.28 0.29 0.27 0.29 0.36 0.38 0.36 0.38 0.39 0.43 0.46 0.49 0.48 0.45 0.44 0.49 0.53 0.59 0.65 0.60 0.58 0.58 0.58 0.64 0.67 0.66 0.69 0.72
0.14 0.15 0.16 0.19 0.20 0.21 0.25 0.27 0.30 0.28 0.25 0.24 0.23 0.24 0.25 0.27 0.27 0.26 0.26 0.29 0.30 0.34 0.34 0.32 0.32 0.30 0.30 0.34 0.35 0.35 0.40 0.47 0.53 0.65 0.72 0.74 0.80 0.81 0.80 0.77 0.68 0.62 0.63

GEFSMW_prec_meanprecacc_246.txt.gz
Total_Precipitation_Accumulation
0.66 0.67 0.70 0.75 0.77 0.77 0.75 0.74 0.79 0.86 0.98 1.19 1.47 1.89 2.09 2.19 2.15 2.15 2.06 1.83 1.61 1.61 1.81 1.80 1.74 1.74 1.75 1.72 1.66 1.81 1.75 1.47 1.39 1.60 1.59 1.43 1.24 1.18 1.18 1.24 1.48 1.59 1.50
0.64 0.61 0.59 0.61 0.66 0.65 0.68 0.79 0.78 0.82 0.93 1.19 1.47 1.80 2.12 2.16 2.16 2.16 2.12 2.00 1.86 1.83 1.88 2.10 2.20 2.16 2.31 2.29 2.09 2.23 2.26 1.87 1.63 1.93 2.26 1.97 1.73 1.31 1.22 1.35 1.41 1.50 1.59
0.52 0.56 0.55 0.54 0.59 0.57 0.54 0.65 0.75 0.86 1.11 1.40 1.67 1.83 2.07 2.14 2.17 2.12 2.14 2.17 2.10 2.00 2.04 2.17 2.33 2.33 2.42 2.56 2.61 2.52 2.63 2.45 2.04 1.91 2.24 2.18 2.01 1.79 1.44 1.37 1.45 1.60 1.67
0.44 0.45 0.50 0.51 0.49 0.47 0.44 0.51 0.62 0.85 1.21 1.55 1.77 1.98 2.30 2.34 2.24 2.23 2.19 2.20 2.22 2.20 2.30 2.34 2.43 2.44 2.44 2.54 2.63 2.56 2.72 2.84 2.46 2.13 1.92 1.77 1.77 1.93 1.76 1.52 1.47 1.63 1.65
0.36 0.37 0.39 0.41 0.43 0.47 0.47 0.51 0.67 0.93 1.24 1.47 1.73 2.07 2.27 2.33 2.41 2.29 2.24 2.24 2.28 2.29 2.34 2.42 2.60 2.58 2.56 2.53 2.71 2.74 2.83 2.77 2.71 2.57 2.39 2.21 1.98 1.67 1.81 1.86 1.70 1.59 1.48
0.34 0.37 0.39 0.41 0.43 0.46 0.53 0.64 0.81 0.98 1.24 1.45 1.69 1.89 2.09 2.22 2.32 2.37 2.27 2.23 2.29 2.37 2.23 2.15 2.33 2.40 2.45 2.45 2.60 2.74 2.87 2.84 2.88 2.80 2.51 2.47 2.35 2.03 2.00 1.87 1.73 1.74 1.56
0.43 0.48 0.50 0.58 0.66 0.68 0.72 0.82 0.95 1.10 1.24 1.37 1.52 1.60 1.74 1.89 1.89 2.04 2.09 2.19 2.20 2.22 2.22 2.11 2.11 2.16 2.14 2.18 2.28 2.33 2.38 2.53 2.71 2.62 2.40 2.35 2.19 2.18 2.25 2.15 1.89 1.72 1.49
0.58 0.69 0.77 0.88 0.98 0.98 1.00 1.07 1.12 1.15 1.20 1.28 1.35 1.41 1.48 1.58 1.61 1.61 1.60 1.76 1.90 1.91 1.98 1.97 1.91 1.97 2.05 2.05 2.14 2.15 2.14 2.18 2.24 2.20 2.31 2.38 2.23 2.17 2.14 2.20 2.35 2.09 1.84
0.84 0.94 1.07 1.13 1.12 1.13 1.10 1.13 1.17 1.16 1.16 1.22 1.23 1.16 1.17 1.26 1.35 1.35 1.41 1.44 1.48 1.46 1.51 1.59 1.68 1.79 1.87 1.92 2.06 2.15 2.13 2.07 2.05 2.14 2.22 2.16 2.13 2.12 2.04 2.05 2.21 2.31 2.14
1.20 1.32 1.45 1.40 1.34 1.34 1.39 1.30 1.21 1.15 1.12 1.14 1.19 1.11 1.10 1.16 1.17 1.13 1.19 1.17 1.14 1.12 1.16 1.26 1.45 1.70 1.81 1.84 1.92 2.02 2.10 2.10 2.05 2.13 2.24 2.28 2.25 2.26 2.21 2.10 2.08 2.03 2.08
1.60 1.69 1.72 1.65 1.48 1.36 1.36 1.32 1.20 1.09 1.00 1.00 1.09 1.13 1.08 1.11 1.12 1.09 1.04 1.00 0.97 0.99 1.07 1.11 1.27 1.44 1.62 1.81 1.96 2.00 2.02 2.03 2.00 1.92 2.02 2.15 2.21 2.31 2.35 2.37 2.27 2.13 2.07
1.51 1.55 1.51 1.52 1.42 1.32 1.23 1.22 1.13 0.97 0.93 0.98 1.03 1.09 1.00 0.98 1.03 1.01 1.05 0.96 0.87 0.84 0.89 1.03 1.23 1.34 1.43 1.49 1.59 1.67 1.72 1.78 1.85 1.83 1.78 1.84 1.91 2.06 2.21 2.31 2.28 2.28 2.16
1.23 1.31 1.35 1.25 1.20 1.15 1.09 1.21 1.23 1.10 1.07 1.10 1.20 1.15 1.02 1.00 1.02 0.97 1.03 0.96 0.90 0.86 0.86 0.98 1.12 1.18 1.24 1.29 1.34 1.44 1.57 1.60 1.58 1.61 1.54 1.53 1.60 1.75 1.89 1.98 2.07 2.20 2.23
1.08 1.10 1.15 1.09 1.11 1.07 1.04 1.17 1.21 1.21 1.26 1.32 1.34 1.24 1.12 1.02 0.97 0.94 0.97 0.95 0.94 0.93 0.94 1.06 1.12 1.14 1.13 1.25 1.27 1.33 1.36 1.30 1.25 1.26 1.24 1.26 1.31 1.40 1.55 1.70 1.92 2.10 2.21
0.91 0.85 0.82 0.83 0.89 0.89 0.84 0.91 1.01 1.09 1.21 1.27 1.23 1.18 1.07 0.93 0.86 0.88 0.87 0.91 0.97 0.96 0.99 1.04 1.13 1.16 1.15 1.19 1.25 1.22 1.14 1.11 1.08 1.03 0.91 0.93 1.01 1.04 1.13 1.17 1.46 1.72 1.94
0.68 0.65 0.61 0.60 0.64 0.57 0.59 0.63 0.74 0.90 1.09 1.17 1.10 0.99 0.92 0.91 0.83 0.79 0.77 0.80 0.83 0.86 0.88 0.92 1.07 1.17 1.05 1.16 1.16 1.05 0.95 0.90 0.94 0.90 0.82 0.80 0.85 0.78 0.75 0.78 1.01 1.30 1.48
0.57 0.58 0.56 0.51 0.54 0.49 0.51 0.59 0.67 0.81 0.91 0.94 0.89 0.81 0.79 0.77 0.70 0.68 0.70 0.75 0.77 0.81 0.83 0.81 0.95 1.03 1.08 1.03 0.87 0.92 0.89 0.89 0.91 0.93 0.94 0.85 0.81 0.90 0.79 0.73 0.81 0.89 1.00
0.47 0.52 0.53 0.50 0.52 0.56 0.59 0.69 0.75 0.76 0.79 0.84 0.85 0.79 0.73 0.68 0.64 0.61 0.63 0.74 0.76 0.74 0.76 0.77 0.76 0.82 0.96 0.92 0.76 0.80 0.78 0.89 0.96 1.00 1.07 1.06 0.99 0.97 1.03 0.96 0.97 0.93 0.87
0.29 0.30 0.33 0.35 0.41 0.45 0.50 0.52 0.55 0.56 0.58 0.63 0.69 0.66 0.59 0.61 0.65 0.62 0.67 0.71 0.70 0.72 0.70 0.73 0.74 0.77 0.81 0.81 0.73 0.75 0.79 0.92 0.94 0.90 1.02 1.06 1.01 1.06 1.12 1.21 1.26 1.18 1.03
0.19 0.17 0.18 0.20 0.23 0.28 0.40 0.45 0.43 0.37 0.37 0.40 0.46 0.49 0.47 0.50 0.57 0.65 0.72 0.70 0.66 0.71 0.71 0.68 0.65 0.67 0.68 0.75 0.67 0.78 0.85 0.89 0.90 0.91 0.98 1.14 1.06 1.03 1.01 1.07 1.19 1.18 1.05
0.16 0.17 0.16 0.16 0.20 0.25 0.29 0.33 0.38 0.34 0.33 0.34 0.36 0.38 0.39 0.42 0.50 0.55 0.54 0.54 0.57 0.63 0.65 0.67 0.62 0.60 0.66 0.79 0.80 0.85 0.85 0.89 0.95 1.03 1.07 1.05 1.15 0.99 0.94 0.94 0.94 1.03 1.03
0.13 0.13 0.14 0.17 0.22 0.23 0.23 0.24 0.27 0.27 0.30 0.30 0.33 0.33 0.31 0.31 0.33 0.38 0.42 0.44 0.47 0.49 0.50 0.51 0.50 0.53 0.64 0.72 0.73 0.76 0.80 0.89 0.88 0.92 0.93 0.90 0.99 0.85 0.76 0.70 0.76 0.84 0.89
0.10 0.12 0.17 0.21 0.24 0.24 0.21 0.21 0.22 0.25 0.30 0.31 0.31 0.31 0.30 0.29 0.30 0.34 0.37 0.41 0.45 0.49 0.47 0.43 0.42 0.47 0.52 0.60 0.63 0.62 0.63 0.67 0.68 0.65 0.76 0.80 0.77 0.71 0.63 0.67 0.71 0.73 0.74
0.12 0.13 0.18 0.21 0.24 0.23 0.24 0.25 0.24 0.24 0.26 0.27 0.28 0.29 0.30 0.31 0.31 0.34 0.38 0.44 0.45 0.41 0.40 0.41 0.43 0.48 0.51 0.52 0.51 0.54 0.54 0.54 0.59 0.57 0.62 0.65 0.62 0.61 0.61 0.64 0.68 0.73 0.76
0.13 0.14 0.17 0.21 0.23 0.23 0.25 0.27 0.26 0.24 0.24 0.26 0.26 0.26 0.28 0.30 0.31 0.28 0.30 0.36 0.39 0.37 0.39 0.40 0.44 0.48 0.50 0.48 0.47 0.46 0.51 0.56 0.61 0.67 0.62 0.60 0.60 0.60 0.66 0.69 0.68 0.71 0.76
0.15 0.16 0.17 0.20 0.21 0.21 0.26 0.28 0.31 0.29 0.27 0.25 0.25 0.26 0.26 0.29 0.29 0.27 0.28 0.30 0.31 0.35 0.35 0.33 0.34 0.31 0.31 0.36 0.36 0.37 0.42 0.50 0.56 0.67 0.73 0.76 0.81 0.83 0.82 0.78 0.69 0.65 0.67